Probability
0 0 0 0 0 0 0 0 0 0 0 0 0 0 0 0 0 0 1 3 5 6 6 6 6 4 2 0 0 0 0 0 0 0 0 0 0 0 0 0 0 0 0
1 1 1 1 1 0 0 0 0 0 0 0 0 0 0 0 0 0 1 2 4 4 5 6 6 5 3 1 0 0 0 0 1 1 0 0 0 0 0 0 0 0 0
2 2 2 2 1 0 0 0 0 0 0 0 0 0 0 0 0 0 0 1 2 3 5 6 6 6 5 3 1 1 0 1 2 2 1 1 1 1 0 0 0 0 0
4 4 3 2 1 0 0 0 0 0 0 0 0 0 0 0 0 0 0 0 1 2 4 5 5 6 6 5 3 2 1 1 3 3 2 2 2 1 0 0 0 0 0
4 4 3 2 1 1 0 0 0 0 0 0 0 0 0 0 0 0 0 0 0 1 2 3 5 5 5 4 4 4 3 3 3 3 3 2 2 1 0 0 0 0 0
4 4 3 3 2 2 1 0 0 0 0 0 0 0 0 0 0 0 0 0 0 0 1 2 4 5 5 4 4 4 4 3 3 3 3 2 1 0 0 0 0 0 0
3 3 3 3 3 2 1 0 0 0 0 0 0 0 0 0 0 0 0 0 0 0 0 1 3 5 6 4 4 4 3 3 2 2 2 2 1 1 1 1 1 1 0
3 3 3 3 3 3 1 0 0 0 0 0 0 0 0 0 0 0 0 0 0 0 0 0 2 4 5 4 4 3 3 2 2 2 2 2 2 2 2 2 2 2 1
5 5 4 4 3 3 2 1 0 0 0 0 0 0 0 0 0 0 0 0 0 0 0 0 2 3 3 4 3 3 4 3 2 2 2 2 1 1 1 1 1 2 2
6 6 6 6 5 4 3 2 2 1 1 1 0 0 0 0 0 0 0 0 0 0 0 0 1 2 2 3 2 2 3 3 2 1 1 1 1 0 0 0 0 1 1
6 7 8 8 7 6 5 4 3 3 2 2 1 0 0 0 0 0 0 0 0 0 0 0 0 1 1 1 2 1 1 2 1 0 0 1 0 0 0 0 0 0 0
6 7 7 8 8 8 7 6 5 4 4 3 2 1 0 0 0 0 0 0 0 0 0 0 0 0 0 1 2 1 1 1 1 0 0 0 0 0 0 0 0 0 0
7 7 7 7 8 9 9 8 7 6 5 4 3 1 0 0 0 0 0 0 0 0 0 0 0 1 1 0 1 1 0 0 0 0 0 0 0 0 0 0 0 0 0
9 8 7 7 7 9 9 9 9 7 6 5 4 2 1 0 0 0 0 0 0 0 0 0 0 1 1 0 0 0 0 0 0 0 0 0 0 0 0 0 0 0 0
12 10 7 6 7 7 9 9 9 9 8 7 6 4 3 1 0 0 0 0 0 0 0 0 0 0 0 0 0 0 0 0 0 0 0 0 0 0 0 0 0 0 0
14 12 9 8 7 7 7 9 9 9 9 8 7 6 5 3 1 0 0 0 0 0 0 0 0 0 0 0 0 0 0 0 0 0 0 0 0 0 0 0 0 0 0
15 14 12 11 9 7 7 7 8 9 9 9 9 8 6 4 3 1 0 0 0 0 0 0 0 0 0 0 0 0 0 0 0 0 0 0 0 0 0 0 0 0 0
12 13 13 13 11 9 8 8 8 8 8 9 9 9 7 6 5 2 1 0 0 0 0 0 0 0 0 0 0 0 0 0 0 0 0 0 0 0 0 0 0 0 0
7 8 10 11 10 9 8 8 8 7 7 7 8 8 7 6 6 5 3 1 0 0 0 0 0 0 0 0 0 0 0 0 0 0 0 0 0 0 0 0 0 0 0
4 5 5 6 7 8 8 8 7 6 5 5 5 6 6 6 6 6 5 3 2 1 0 0 0 0 0 0 0 0 0 0 0 0 0 0 0 0 0 0 0 0 0
6 5 4 4 5 7 7 7 7 7 5 4 4 4 5 6 6 5 5 5 4 2 1 0 0 0 0 0 0 0 0 0 0 0 0 0 0 0 0 0 0 0 0
7 6 5 4 4 5 4 4 6 7 7 6 6 5 5 5 5 3 2 3 4 2 1 0 0 0 0 0 0 0 0 0 0 0 0 0 0 0 0 0 0 0 0
8 7 5 3 2 2 1 1 3 6 8 8 8 7 5 4 4 3 1 1 1 1 0 0 0 0 0 0 0 0 0 0 0 0 0 0 0 0 0 0 0 0 0
12 10 7 4 2 1 0 0 1 3 5 7 8 8 6 4 4 3 2 1 0 0 0 0 0 0 0 0 0 0 0 0 0 0 0 0 0 0 0 0 0 0 0
13 13 11 8 5 2 1 0 0 1 2 4 6 7 5 4 3 2 2 1 0 0 0 0 0 0 0 0 0 0 0 0 0 0 0 0 0 0 0 0 0 0 0
12 14 14 11 7 3 1 0 0 0 0 2 5 6 5 4 2 2 2 2 1 0 0 0 0 0 0 0 0 0 0 0 0 0 0 0 0 0 0 0 0 0 0
Wind_Speed
3 2 2 2 2 1 1 1 1 1 1 0 1 2 2 3 3 3 3 7 7 7 7 7 7 8 8 7 7 8 8 8 7 7 6 6 6 5 5 5 5 5 4
3 3 2 2 2 2 2 2 1 1 1 1 0 1 2 3 3 3 3 4 7 7 7 7 7 7 7 7 7 7 7 7 7 6 6 6 6 5 5 5 5 5 5
4 3 2 1 1 1 1 1 1 1 0 1 0 1 1 2 3 3 3 2 3 6 8 7 7 7 7 7 7 7 7 7 6 6 6 6 6 6 5 5 5 5 4
4 3 3 2 1 1 1 1 1 1 0 0 0 1 1 1 3 3 3 3 3 3 5 7 7 6 7 7 7 7 7 7 7 7 7 6 6 6 5 5 5 4 5
4 3 2 2 2 2 1 1 1 1 1 0 1 1 1 1 2 3 3 3 4 3 3 5 7 7 7 7 7 7 7 7 7 7 7 7 6 6 6 6 5 5 5
4 3 2 2 2 2 1 1 1 1 1 1 1 1 1 1 2 2 3 3 3 4 3 3 3 4 7 7 7 7 7 7 7 7 7 7 7 6 6 6 5 5 5
4 3 2 2 2 2 2 2 1 1 0 0 1 2 2 1 1 1 2 2 2 3 3 4 3 3 3 6 6 7 8 8 8 7 7 7 7 6 6 6 5 5 5
3 3 3 2 2 2 1 2 2 1 0 1 2 1 2 3 3 1 1 2 3 2 4 5 4 4 3 2 4 7 7 8 8 8 8 7 6 6 6 5 5 5 5
3 2 3 2 2 2 2 2 2 3 1 1 1 3 2 2 2 2 1 2 2 2 3 3 4 4 4 3 3 6 7 7 8 8 8 7 6 6 5 5 5 5 5
2 2 2 2 2 2 2 2 2 2 3 1 1 1 2 3 2 2 3 2 2 2 3 3 3 4 4 3 4 6 7 7 7 8 8 8 7 7 6 5 5 5 5
1 2 2 2 2 2 2 2 2 2 2 2 2 1 0 0 1 2 2 2 2 2 2 3 3 3 4 4 3 5 8 8 7 7 7 7 7 7 6 6 5 5 5
0 0 1 2 2 2 2 3 2 2 2 2 2 2 2 1 2 2 2 2 2 2 2 2 2 3 3 3 5 7 8 7 7 6 6 6 6 6 7 7 7 6 6
1 1 1 1 1 1 2 2 2 2 2 2 2 2 2 2 2 2 2 2 1 2 1 1 1 2 3 3 4 7 7 8 7 6 6 6 5 6 6 6 7 7 6
2 2 2 1 1 1 2 2 2 2 1 1 1 1 1 1 1 2 2 2 1 1 1 2 1 2 2 3 4 7 5 8 8 7 7 6 6 6 7 6 6 6 6
2 1 2 1 1 1 1 2 1 2 1 1 1 1 1 1 1 1 1 2 3 2 2 2 1 2 2 2 4 4 4 7 8 8 8 7 6 6 6 6 6 6 5
1 2 1 1 1 1 1 1 1 1 1 1 1 1 1 1 1 1 1 1 2 3 2 2 2 1 2 3 4 4 4 8 9 9 9 8 7 7 7 7 6 6 6
1 1 2 1 1 1 1 1 1 1 1 2 1 2 2 2 1 1 1 0 1 2 2 2 1 0 1 2 2 2 3 4 5 9 9 9 9 8 8 8 7 7 6
1 1 1 1 1 1 1 1 1 1 2 2 2 2 3 2 1 1 1 1 1 2 2 1 1 0 1 2 2 3 3 4 3 7 9 9 9 9 9 8 8 7 7
1 1 1 1 0 0 1 1 2 2 2 3 3 3 3 3 2 2 2 1 1 1 1 2 1 1 1 1 1 1 1 1 3 5 7 9 9 9 9 9 8 8 8
1 1 1 1 0 1 1 1 1 2 2 3 3 3 3 3 3 3 2 2 1 1 1 1 1 1 0 0 1 1 1 1 2 3 3 5 7 9 9 9 9 9 9
1 0 1 1 0 0 1 1 1 1 2 2 2 3 3 2 3 3 2 2 2 1 1 1 1 1 1 1 1 1 2 1 2 2 1 2 2 3 5 7 8 9 9
1 1 1 1 1 1 2 2 1 1 2 2 3 3 3 2 3 3 3 3 4 4 3 2 2 2 3 2 2 2 1 1 2 2 2 3 2 3 3 4 7 9 9
1 1 0 0 0 2 2 2 2 2 2 2 2 2 2 2 2 2 2 2 2 3 4 4 3 4 3 3 3 2 2 2 3 3 2 2 2 3 3 4 8 8 9
1 0 1 1 1 2 2 2 2 1 2 2 2 2 2 2 1 1 1 1 1 2 3 3 4 4 4 3 4 4 4 3 2 2 3 2 2 3 3 3 5 8 8
0 1 1 1 1 2 2 2 1 1 1 2 2 1 1 2 2 1 1 1 2 3 3 2 3 4 4 5 3 2 1 1 2 3 2 2 2 2 2 2 3 6 7
1 1 1 2 2 2 2 2 1 0 1 2 2 2 1 1 1 1 2 2 2 3 2 2 2 3 3 4 5 4 4 3 2 3 2 2 1 1 1 2 2 2 3
Wind_Direction
165 169 175 182 189 180 192 209 215 237 234 210 185 140 142 153 153 164 174 182 184 185 183 182 185 187 184 183 182 183 181 179 179 183 182 180 182 186 190 188 187 185 181
162 164 173 183 187 186 189 190 188 186 194 163 164 155 153 155 159 167 179 187 189 190 191 189 188 188 188 188 187 184 183 183 184 186 188 185 183 181 185 189 190 190 190
159 155 160 169 189 187 159 136 108 93 128 143 189 217 161 170 169 177 182 186 192 199 195 193 190 189 191 193 193 190 189 187 186 190 189 183 182 181 183 188 192 190 187
160 148 151 160 165 144 130 123 105 94 65 136 227 258 221 194 184 183 184 190 191 198 201 198 194 196 197 199 200 198 198 191 189 192 190 186 182 180 182 185 191 195 193
161 148 153 169 160 134 137 152 118 133 143 274 244 240 236 223 201 187 187 192 195 197 194 199 199 198 200 203 203 200 197 196 195 197 195 190 184 183 185 188 191 195 196
164 151 162 174 155 136 138 131 125 108 157 221 260 290 269 241 212 194 196 192 195 197 192 197 198 206 206 206 205 203 202 198 197 199 196 192 188 189 189 190 191 197 200
157 154 167 174 160 161 178 165 144 109 39 63 59 353 337 320 235 203 190 185 198 199 191 198 195 202 207 208 207 205 203 201 198 197 195 191 189 189 190 192 195 200 204
163 162 166 178 175 160 161 158 143 132 256 115 123 89 355 341 328 255 212 204 212 201 201 201 197 201 197 189 202 201 203 199 197 196 191 186 185 185 188 192 197 203 207
168 167 172 171 177 170 181 190 173 159 181 255 158 145 151 235 298 315 263 221 210 201 210 200 202 203 196 190 196 206 199 194 192 189 183 176 179 182 187 195 205 202 199
175 172 170 176 178 171 176 193 175 166 162 201 256 193 183 174 172 300 317 295 238 213 210 204 204 205 196 195 200 197 191 189 192 190 185 186 189 192 195 198 203 205 205
186 176 162 160 169 176 179 176 166 171 172 182 191 194 193 140 155 162 267 302 308 263 227 210 199 202 197 191 191 195 193 192 194 193 191 192 193 196 199 203 204 208 211
247 154 149 156 168 178 183 182 176 177 181 182 189 180 171 173 195 176 206 244 264 271 250 217 198 194 196 190 192 186 186 183 187 187 189 190 195 202 207 208 207 208 211
214 221 173 167 175 190 183 157 153 174 176 177 198 207 199 205 189 174 173 214 245 277 312 293 223 192 192 185 192 182 183 182 188 192 190 188 195 209 211 211 209 211 215
205 205 185 176 178 173 176 154 156 185 173 189 213 213 213 236 204 182 174 166 191 301 299 266 267 216 193 186 193 179 181 186 189 193 192 193 197 205 209 211 213 218 222
179 165 167 166 172 152 158 159 173 192 185 201 224 222 217 255 247 217 176 165 165 195 251 254 250 234 195 182 188 182 182 193 196 198 197 198 202 206 208 208 211 217 223
156 138 141 165 158 141 132 154 183 191 169 210 208 206 241 257 274 262 206 183 169 174 213 236 230 228 195 191 186 186 195 195 204 205 204 207 210 213 211 210 211 215 219
153 159 164 164 158 156 157 155 208 198 194 226 235 223 247 244 248 280 268 208 175 157 193 258 259 211 173 177 177 194 198 198 208 211 212 215 217 217 217 216 216 218 221
123 125 123 135 169 175 164 165 222 240 220 230 239 232 245 244 245 251 249 246 225 190 176 220 266 230 204 194 186 201 210 208 210 216 217 220 221 222 222 221 222 222 225
89 84 97 112 147 193 192 202 219 232 238 241 235 228 235 224 236 245 243 240 237 213 160 166 214 236 221 185 164 219 222 236 228 225 221 223 224 226 227 225 223 223 225
98 119 124 150 181 228 222 240 233 251 259 263 258 242 233 217 222 227 232 232 213 166 139 144 176 229 238 216 141 177 261 261 251 242 227 221 224 231 231 228 225 224 224
124 126 85 48 23 157 292 299 264 265 275 280 285 272 253 227 214 209 216 210 194 178 165 168 191 187 226 176 197 207 222 253 265 241 232 238 223 233 234 232 229 229 227
66 67 62 70 51 337 333 331 331 296 273 258 264 275 271 244 241 241 235 217 198 190 187 187 204 204 227 220 206 200 198 180 271 253 196 253 208 233 234 224 227 227 228
88 66 14 61 273 301 306 310 314 276 264 261 256 259 277 286 247 256 267 274 265 232 200 189 199 215 209 214 192 201 213 208 230 237 175 252 241 246 243 233 221 222 227
132 225 257 231 236 294 305 322 329 286 266 271 262 241 233 266 269 225 241 294 290 271 236 210 210 224 222 217 201 202 211 226 264 250 175 222 248 247 252 245 226 218 225
316 271 247 221 225 267 273 301 337 317 298 302 296 273 243 243 255 201 177 241 301 302 297 269 236 247 244 235 213 170 179 170 267 265 206 193 241 256 259 256 246 223 225
234 263 275 249 231 248 259 259 246 222 303 310 315 309 282 286 290 167 178 190 244 273 297 312 305 292 263 244 225 198 190 191 213 253 232 183 214 157 294 274 251 235 230